Theta_e
332 331 331 330 331 329 331 330 331 330 329 329 329 328 327 325 321 318 318 320 322 325 328 326 330 336 340 342 344 344 345 347 349 346 347 347 347 346 343 342 342 342 342 342 342 342 343 344 345 347 348 348 349 350 351 352 353 354 353 354 355 355 355 354 354 354 354 354 353 353 355 356 358 361
332 334 332 330 329 330 329 329 329 329 328 327 327 326 326 326 323 322 318 318 323 323 327 329 329 332 333 336 338 342 343 348 349 348 347 348 349 345 343 343 342 342 341 341 341 342 343 343 343 343 343 344 346 348 348 349 349 351 351 353 353 354 353 352 353 353 353 353 354 353 354 355 356 356
333 331 330 329 329 329 328 328 328 328 327 326 325 324 324 325 323 322 321 316 321 325 322 326 330 330 331 333 335 339 343 346 348 347 347 349 349 347 346 342 341 341 341 340 339 339 338 339 340 340 340 341 343 345 346 347 347 348 349 350 351 351 350 351 351 352 352 352 352 351 352 353 354 354
333 329 328 328 328 328 327 326 327 326 326 325 323 323 323 321 323 323 322 318 317 322 323 324 326 328 330 332 332 333 335 338 345 346 348 348 350 350 350 345 341 340 339 339 338 336 335 337 338 338 339 340 342 344 343 343 344 345 346 346 348 349 348 347 348 350 350 351 350 351 351 351 352 353
331 330 329 327 328 328 326 325 326 325 324 323 323 323 321 320 322 322 321 318 317 319 323 323 323 326 328 329 332 333 334 335 336 340 343 349 350 350 350 349 345 340 337 336 336 335 335 336 336 337 338 339 340 342 343 342 342 342 342 343 344 344 345 344 344 346 348 348 348 349 349 349 349 351
333 330 327 327 327 328 326 325 324 323 323 321 320 320 321 319 320 323 320 319 318 316 319 320 323 323 327 326 332 332 333 334 336 336 338 344 350 350 349 348 348 343 338 335 333 334 334 335 335 335 337 337 338 339 340 340 339 339 339 339 340 340 339 339 340 342 343 345 346 346 347 347 347 348
330 328 328 327 326 329 325 324 323 323 322 322 320 320 321 320 321 322 321 320 317 316 316 320 319 321 323 324 327 331 334 335 336 335 336 340 347 350 349 348 348 344 340 335 333 333 333 334 334 334 335 335 335 335 335 335 336 336 336 336 337 337 337 337 338 340 341 342 344 345 345 345 345 345
329 327 326 326 326 327 324 322 322 322 322 321 321 320 320 321 321 321 321 321 319 318 316 318 318 320 321 323 327 331 334 334 335 335 336 337 340 346 348 348 347 345 339 337 334 333 333 333 333 332 332 332 332 332 332 332 333 333 333 333 334 334 334 333 335 338 337 338 340 342 343 343 343 341
330 328 327 326 326 325 322 322 321 321 320 321 321 320 320 320 321 322 321 320 320 318 316 317 319 321 321 324 326 329 330 333 335 336 335 335 336 340 345 347 348 344 339 338 336 334 333 333 332 332 332 331 330 330 329 330 330 330 330 330 331 332 332 332 331 333 333 334 335 335 337 339 341 341
329 328 327 326 325 324 323 322 322 322 321 321 321 320 320 320 320 320 320 320 319 318 317 317 317 319 319 321 324 328 331 331 332 333 335 336 338 339 342 344 346 347 347 344 342 337 336 334 333 332 332 332 330 329 329 328 327 327 327 325 325 328 329 329 331 331 330 331 333 334 334 336 337 338
329 327 326 326 326 324 324 323 322 322 322 323 321 322 321 322 321 320 319 319 318 317 316 317 318 318 320 322 321 326 330 332 332 330 331 332 336 339 340 341 344 346 346 344 341 341 340 338 336 332 330 331 330 330 329 327 325 324 323 322 322 323 323 325 327 329 328 329 329 329 329 331 335 337
328 327 327 326 325 325 325 324 323 322 321 321 320 321 321 321 320 319 320 318 317 316 316 316 316 318 318 320 323 325 327 328 329 331 331 329 331 335 340 341 340 342 344 344 345 342 340 338 335 332 331 330 330 329 330 329 328 325 323 322 324 324 322 323 324 325 325 324 324 324 325 326 329 333
328 327 327 326 325 328 330 327 325 324 322 322 319 320 321 321 320 320 319 318 316 315 315 315 317 317 317 319 319 320 322 324 325 329 331 330 333 334 336 341 343 342 341 342 343 345 346 344 343 342 339 338 334 332 332 334 333 329 323 323 325 326 324 322 322 323 323 323 322 321 322 324 327 330
328 327 326 329 335 330 327 325 324 322 320 320 321 322 321 321 320 319 318 316 315 315 314 314 315 315 316 317 318 319 321 324 326 328 329 328 331 332 333 336 342 345 342 341 340 343 347 346 345 344 342 343 339 337 335 335 336 332 327 325 325 325 325 323 322 322 322 321 321 320 320 321 325 326
326 325 325 325 330 332 331 330 327 325 323 322 321 320 320 320 321 319 317 316 316 316 315 315 315 315 315 317 319 319 321 322 322 323 328 329 330 329 328 328 335 345 345 342 340 341 345 347 344 344 344 344 342 339 339 335 334 331 328 327 326 326 325 325 324 323 321 320 320 320 319 320 322 323
325 324 324 326 328 327 326 327 326 325 325 322 322 320 319 318 318 319 319 318 316 315 314 314 315 316 316 317 318 319 320 320 321 323 325 328 328 328 328 329 330 339 346 343 340 340 344 348 347 345 346 346 345 343 337 334 333 331 329 328 327 327 326 326 327 326 324 322 322 323 323 323 323 323
325 323 324 326 327 328 330 331 327 325 326 323 322 319 318 318 319 319 319 318 320 318 316 316 316 317 317 317 318 320 321 322 321 323 323 326 328 329 328 330 332 337 345 342 339 338 342 345 344 345 347 348 347 346 336 334 333 331 329 329 328 327 326 326 326 326 325 324 323 323 323 322 322 321
326 324 324 324 323 324 325 326 325 324 323 324 325 325 325 324 323 319 318 316 316 319 319 318 317 319 320 319 320 322 322 321 320 320 321 323 326 328 329 333 334 337 347 341 340 337 340 343 343 342 346 349 349 348 341 333 331 331 329 328 327 326 325 325 325 325 325 325 324 322 320 319 318 319
327 325 325 322 322 322 322 323 324 323 323 323 323 322 322 323 323 321 320 319 320 321 321 320 320 321 321 321 322 322 323 322 322 322 322 324 326 329 333 334 336 337 345 344 341 333 339 343 342 342 344 346 348 350 339 333 331 330 327 327 327 326 325 325 325 324 324 324 323 321 319 317 316 315
327 327 325 322 322 322 322 321 320 321 322 321 320 321 322 322 321 320 318 317 318 320 321 321 321 320 321 318 320 322 322 323 323 324 324 325 326 326 327 328 333 333 339 341 335 332 336 342 342 342 345 345 345 348 350 335 330 329 327 328 327 326 324 324 324 324 324 324 323 320 317 314 313 312
327 327 325 324 324 323 322 321 318 317 316 319 320 320 319 318 318 318 321 319 317 317 315 313 314 314 315 315 315 314 315 319 321 322 320 321 326 326 325 327 329 331 335 340 338 335 334 340 341 341 342 343 343 345 348 350 332 329 327 326 326 325 324 323 323 323 324 323 322 321 319 315 313 313
327 328 335 332 328 325 323 319 315 314 315 318 317 315 315 316 316 318 321 321 320 316 315 315 316 316 317 317 317 317 316 315 316 319 316 319 321 322 326 326 328 330 333 337 340 335 334 338 341 339 338 338 341 343 345 348 344 330 326 326 326 324 323 323 322 323 323 323 322 320 317 314 313 317
327 326 330 331 327 325 323 316 311 310 310 313 313 314 315 316 316 317 318 316 316 318 319 319 320 320 320 323 324 325 320 318 317 319 319 320 319 319 324 328 328 327 330 335 341 333 334 335 337 339 330 330 337 342 343 344 347 342 338 336 332 324 324 322 320 318 319 320 319 319 315 312 313 322
325 324 324 326 322 317 315 310 307 304 304 310 313 315 316 315 314 316 315 316 317 318 318 318 319 320 321 322 323 324 325 325 323 319 320 321 320 319 322 328 330 327 329 334 341 334 336 337 335 338 335 329 328 336 342 343 345 342 340 337 335 326 323 320 316 314 314 315 315 316 314 311 314 325
321 321 321 322 321 311 308 306 303 301 302 304 312 317 315 314 313 310 312 317 316 318 319 319 319 319 320 321 321 322 322 324 322 321 320 322 322 321 322 327 331 330 332 336 338 339 334 337 335 336 335 335 334 335 338 342 342 341 339 339 338 327 326 325 323 320 313 311 311 312 311 311 312 324
320 321 321 323 320 308 305 304 301 299 302 306 317 314 306 306 309 313 318 317 317 316 317 317 317 317 318 318 319 321 321 323 325 322 321 321 322 322 324 329 331 330 331 337 332 341 337 335 337 335 334 333 333 337 335 335 337 339 338 339 339 331 329 328 328 325 321 319 316 312 314 311 313 316
319 321 322 323 323 309 303 300 299 300 304 312 311 304 306 308 309 313 316 316 315 315 315 315 314 315 317 317 318 319 320 321 324 324 323 322 322 323 325 328 335 335 335 338 341 343 339 335 336 336 333 334 333 333 332 334 335 339 338 338 337 331 332 333 330 328 325 323 324 312 310 309 311 314
317 318 320 320 308 302 300 300 301 302 310 312 306 305 307 309 311 315 314 313 313 315 314 313 314 314 316 317 317 319 320 321 323 326 324 323 323 323 325 329 336 337 338 339 340 341 339 336 334 335 335 332 329 327 328 332 336 339 338 340 337 333 334 335 334 332 328 327 326 318 319 316 314 314
321 316 307 304 304 305 305 305 304 308 312 310 309 308 309 312 313 313 312 312 312 312 312 313 314 314 316 317 318 320 321 323 322 323 329 327 325 325 327 333 336 336 339 339 339 340 340 338 334 335 335 335 332 331 331 328 334 336 338 337 333 334 334 337 337 335 331 331 329 322 323 323 319 318
312 310 309 310 312 316 316 321 321 320 316 313 313 312 312 312 311 312 311 311 311 311 312 313 313 314 315 317 318 321 321 320 319 321 321 329 328 328 328 330 331 332 335 338 341 340 340 339 336 335 334 334 334 333 333 332 332 337 337 337 337 336 336 337 337 337 334 333 332 327 328 330 326 322
312 314 315 316 313 314 314 316 315 315 317 316 314 314 313 313 311 312 311 310 310 311 312 313 313 314 316 317 318 318 319 319 319 320 321 320 325 328 329 329 328 328 331 333 341 340 339 338 337 336 333 333 333 334 333 334 332 334 336 338 336 332 335 337 337 337 336 335 334 333 334 334 332 329
309 313 316 315 318 318 314 313 312 311 313 314 313 312 312 313 313 313 311 310 310 311 313 313 314 314 314 314 315 317 318 319 319 320 320 319 318 322 328 327 326 327 329 331 338 341 345 338 337 337 337 336 333 333 335 334 333 333 335 336 336 337 337 336 337 336 336 335 333 333 334 335 334 332
309 314 314 312 312 311 311 310 309 308 308 310 310 310 309 311 309 308 308 306 307 309 311 311 312 312 313 313 314 315 316 318 319 319 318 319 318 318 319 320 320 321 325 328 332 336 336 336 340 337 337 337 337 336 333 330 331 333 334 335 335 335 336 338 338 336 336 334 332 332 332 334 336 335
308 311 309 309 308 309 307 307 307 307 306 307 306 307 308 310 307 307 307 306 307 309 310 310 310 311 312 311 312 313 315 316 318 318 317 317 318 316 315 314 315 317 319 321 325 330 333 333 333 330 327 324 322 323 327 332 332 333 334 335 335 335 336 338 338 337 336 335 333 331 331 332 335 336
310 309 307 306 306 306 306 305 305 306 304 305 304 304 305 306 306 306 306 305 306 308 308 308 309 310 311 310 311 312 313 314 316 318 319 319 317 316 316 315 314 315 316 316 317 319 329 332 329 327 327 327 325 323 321 319 325 332 335 335 336 335 335 337 337 337 336 335 335 332 332 333 333 335
306 305 304 304 303 305 304 304 306 304 303 303 302 302 302 303 304 303 304 304 305 306 307 307 307 308 309 310 310 311 312 313 314 315 316 317 317 315 315 315 315 315 315 316 316 319 320 326 329 326 325 325 324 322 319 314 313 311 323 333 335 335 336 336 336 337 336 335 335 333 330 330 331 333
303 303 302 301 302 302 302 302 302 303 302 302 302 301 301 301 302 302 303 303 305 306 306 306 306 307 308 309 310 310 311 312 312 313 314 316 317 316 314 314 315 315 314 315 318 318 320 318 319 325 326 324 324 321 320 321 313 311 307 317 333 335 335 335 335 335 336 336 334 333 332 331 331 333
301 301 301 301 301 301 302 301 302 302 301 302 301 301 301 301 301 301 302 301 302 304 304 304 305 306 307 308 308 309 310 311 312 312 313 314 315 316 316 314 313 314 314 315 317 318 318 318 318 317 320 323 322 318 316 317 317 313 307 308 324 332 334 334 333 333 333 335 334 334 333 331 332 333
301 302 301 300 301 300 300 301 302 300 300 300 300 300 300 299 300 299 300 300 301 301 302 302 303 305 305 307 307 308 309 309 309 310 311 312 314 314 315 316 315 315 314 313 314 316 317 317 317 317 318 317 315 314 315 313 312 316 311 304 312 325 330 332 332 332 332 332 332 330 329 328 326 325
303 303 302 302 301 300 301 302 301 300 299 300 299 299 299 299 299 298 298 299 299 300 300 301 302 302 304 305 306 307 308 309 309 310 310 311 312 313 313 315 316 316 315 314 313 314 315 317 319 319 318 318 321 321 319 318 318 318 316 311 303 309 314 323 330 331 330 332 330 329 327 329 328 327
304 301 300 300 299 300 299 299 299 299 298 299 299 300 299 297 297 298 298 299 300 299 299 299 300 301 302 303 304 305 306 307 308 309 309 309 311 312 311 312 313 316 316 315 315 314 315 317 323 319 324 321 322 323 320 315 313 314 314 315 308 305 306 310 313 316 320 327 330 329 327 327 327 327
302 299 299 299 298 298 298 298 298 297 297 297 297 297 297 297 298 300 299 300 297 299 298 299 299 301 301 302 303 304 304 306 307 307 308 307 308 309 309 309 309 312 313 314 315 316 319 321 323 320 320 320 319 316 313 314 313 315 316 318 318 311 308 307 308 310 313 313 315 323 327 326 327 326
303 300 299 301 300 300 299 299 297 297 296 296 296 295 296 294 294 295 295 295 296 297 297 298 299 300 300 301 301 302 303 304 306 306 306 306 306 307 306 307 308 310 311 313 317 319 320 322 322 320 318 317 317 317 314 315 316 316 316 316 317 318 318 314 311 310 311 311 310 310 310 319 325 322
300 301 299 299 298 297 297 297 297 296 295 295 294 294 295 293 292 292 293 294 294 295 296 297 298 299 300 301 301 301 303 304 305 305 305 305 305 306 306 306 307 307 309 310 313 316 319 320 321 322 318 315 316 316 315 316 315 315 315 316 317 317 316 318 318 315 314 313 311 310 312 310 309 310
300 300 300 299 298 298 297 297 296 295 293 293 292 292 294 292 292 291 292 293 294 294 296 296 297 298 300 300 299 300 301 302 303 304 305 304 304 305 305 305 305 305 306 308 309 312 316 317 318 320 320 320 318 316 318 318 316 315 315 315 315 316 316 316 314 314 314 314 311 310 310 312 313 312
Wind_Speed
2 2 2 2 3 3 2 2 2 3 3 3 3 3 4 5 9 11 11 11 10 10 7 10 8 6 7 7 6 8 8 10 12 10 11 11 11 15 21 21 20 21 22 22 22 24 28 29 27 25 25 25 26 25 25 24 23 23 22 22 22 22 21 21 21 21 21 21 21 21 20 19 19 18
3 2 2 2 3 2 2 2 2 2 3 3 3 5 4 3 6 8 12 13 7 11 7 7 9 8 9 9 9 8 10 13 15 11 11 11 11 17 20 23 24 23 23 24 23 24 26 26 24 23 23 24 24 25 25 24 23 22 22 22 22 22 21 21 20 21 21 21 21 20 19 19 19 18
3 2 3 3 2 2 2 1 1 1 2 3 4 5 3 3 3 6 8 13 6 5 12 10 11 12 13 12 12 10 9 10 12 11 11 11 14 18 16 21 23 23 24 24 24 24 24 23 23 22 22 23 24 24 24 24 23 23 22 22 21 21 21 21 20 20 21 21 20 19 19 19 18 18
3 2 3 3 2 3 2 1 1 2 2 2 3 3 4 4 3 3 6 10 14 6 10 11 11 13 13 13 13 13 12 13 17 10 11 13 16 13 10 17 21 21 23 23 23 22 22 22 22 22 22 22 23 24 23 23 23 23 22 22 21 21 21 21 20 20 20 20 19 19 18 18 17 17
3 3 3 3 2 3 2 1 1 2 3 2 3 3 4 4 3 4 5 9 13 9 4 10 10 12 12 13 12 14 13 12 11 12 12 12 11 10 10 10 17 20 21 21 22 22 22 22 22 23 22 22 23 23 24 24 23 23 22 22 22 21 21 21 21 21 20 20 19 18 18 17 17 17
3 3 3 3 3 3 3 1 1 2 3 3 3 3 4 5 5 4 4 7 9 15 9 10 10 11 11 14 11 13 14 13 11 12 12 10 10 10 9 9 10 18 20 21 21 21 21 21 22 22 22 22 23 23 23 23 23 22 22 22 22 22 22 22 21 21 20 19 19 18 17 17 17 17
3 3 4 4 4 3 3 2 3 3 3 3 3 4 4 5 6 5 5 6 10 13 13 9 13 11 11 13 15 13 13 13 12 13 12 11 9 9 9 9 9 14 18 21 21 22 21 21 21 21 22 22 22 22 22 22 22 22 22 23 22 22 22 22 22 22 21 20 19 18 18 18 18 18
4 4 4 5 4 4 4 4 3 4 4 4 4 4 5 5 6 6 5 6 8 9 14 11 11 12 12 13 14 13 13 14 13 11 12 11 11 10 9 10 10 12 18 20 22 22 22 22 21 21 21 21 21 22 22 22 22 22 22 22 22 22 22 22 22 22 21 20 19 19 19 19 19 18
5 5 5 6 5 4 5 4 4 5 5 5 5 5 6 6 6 5 6 7 7 10 12 13 10 12 12 12 14 13 13 13 12 11 12 11 11 12 11 10 10 15 18 19 21 21 22 23 22 22 21 21 21 21 21 22 22 21 21 21 21 21 21 21 21 21 21 20 20 19 19 19 19 18
5 5 6 6 6 5 6 6 6 5 6 5 5 6 6 6 6 6 7 7 8 9 11 12 13 11 13 12 12 12 12 12 13 11 11 11 11 11 10 10 9 9 9 8 10 14 17 20 22 22 21 21 21 21 20 21 21 21 21 21 21 21 21 21 21 20 20 20 20 19 19 19 18 18
5 5 5 6 6 6 6 6 7 7 6 6 6 6 6 6 6 7 7 7 9 10 12 12 11 11 12 11 13 13 12 13 12 11 10 11 9 9 10 11 9 9 10 12 16 14 14 16 15 18 21 20 20 20 20 20 21 20 21 21 21 21 21 20 20 20 20 19 19 19 19 18 18 18
6 6 6 6 6 7 7 8 7 7 7 5 5 6 5 6 6 7 7 8 9 10 11 11 12 10 12 12 11 11 12 12 11 10 12 13 11 9 8 10 10 8 9 9 8 11 12 13 16 17 18 20 20 20 18 20 20 21 21 20 20 20 20 19 19 19 19 19 19 19 18 17 17 17
5 5 5 6 7 7 9 12 11 9 8 5 6 6 6 6 6 7 7 8 9 9 10 12 11 11 11 11 11 11 11 11 12 10 8 11 11 9 9 9 9 8 9 9 9 9 10 10 10 9 8 10 14 15 19 16 22 22 20 20 20 20 19 19 19 19 19 19 18 18 18 17 17 17
5 5 5 6 10 11 10 11 12 11 10 10 8 7 6 7 6 7 8 9 9 9 11 12 12 13 12 13 12 12 12 11 12 13 13 12 11 10 10 9 8 8 9 9 10 10 9 9 9 8 9 8 9 8 10 12 13 17 20 19 19 20 20 20 19 19 19 18 18 18 18 17 17 17
6 5 5 4 6 6 6 5 6 7 10 11 12 14 13 11 8 7 8 9 9 9 10 12 12 12 14 15 14 13 12 11 11 12 11 12 12 11 10 11 7 7 10 10 9 10 9 9 10 9 9 9 8 9 10 16 19 18 18 20 20 20 20 19 19 19 19 18 19 18 17 17 17 16
5 5 5 5 4 4 4 5 6 8 11 13 14 14 12 13 14 12 10 9 9 9 11 12 13 13 13 14 14 13 11 12 12 11 12 12 13 12 12 11 11 5 10 9 9 10 6 8 9 9 9 9 9 10 14 17 18 19 19 19 20 20 20 19 19 19 19 19 19 18 17 17 16 16
5 4 3 4 5 4 8 8 7 6 6 9 11 11 10 12 13 14 16 14 10 9 10 12 14 14 14 16 15 14 14 11 13 12 12 12 12 12 13 12 10 5 9 9 10 11 8 7 8 10 9 8 8 10 14 17 17 18 19 19 19 19 19 20 20 19 19 19 19 18 17 16 15 15
5 4 4 5 5 6 6 6 7 6 6 6 5 5 6 7 11 13 15 15 15 13 11 12 13 16 14 16 18 19 16 15 15 13 13 13 12 12 14 12 11 7 8 11 8 9 8 7 9 11 10 8 8 9 12 17 17 18 19 19 19 19 20 20 20 20 20 19 18 17 16 15 15 14
5 4 5 4 6 7 7 7 7 5 5 5 6 7 8 8 9 9 10 10 9 10 10 13 15 17 17 17 19 19 17 18 17 15 15 14 13 12 10 12 13 10 8 10 9 11 8 7 9 10 9 8 9 8 10 17 18 19 19 19 19 19 19 19 19 19 19 18 17 17 15 15 14 14
6 5 6 5 6 7 7 10 12 7 3 4 6 9 9 9 9 9 11 13 13 12 13 15 17 17 20 24 22 21 19 17 16 15 14 13 14 14 13 12 9 11 6 8 8 6 7 6 9 10 7 6 8 8 7 13 19 19 19 19 19 19 19 19 19 19 19 17 16 15 14 14 14 14
6 5 5 5 7 7 7 10 9 5 3 4 7 8 9 8 8 10 10 11 13 17 22 24 25 26 26 27 29 28 31 23 18 14 13 15 10 11 13 11 9 9 6 6 9 8 9 6 8 7 5 7 8 7 8 7 12 18 18 19 19 19 19 18 18 18 18 17 15 15 15 14 13 14
6 5 10 10 8 7 8 8 3 2 2 4 6 6 8 9 10 10 8 9 12 18 20 21 23 24 24 26 27 27 25 27 21 16 18 15 9 11 10 10 9 7 6 7 9 8 10 7 6 7 2 3 4 7 7 7 7 13 15 18 19 19 19 19 19 17 17 16 15 14 14 14 13 9
5 5 7 12 11 8 7 4 4 2 1 2 3 5 7 10 10 9 10 12 14 15 16 16 19 19 22 21 19 18 24 20 21 17 18 14 13 12 11 9 8 8 8 8 11 9 8 9 7 7 2 4 4 4 6 7 7 6 7 9 11 15 16 16 15 15 15 14 14 14 15 15 12 7
5 5 6 7 9 9 5 2 4 4 3 2 3 4 6 10 12 10 11 12 12 13 14 16 18 18 18 18 17 15 14 9 12 14 16 16 14 12 12 11 10 10 6 6 14 11 7 8 7 6 7 5 5 4 5 6 7 7 7 7 7 8 9 10 8 13 13 13 14 15 15 15 13 7
6 6 6 6 4 2 3 3 7 5 4 4 3 3 5 7 12 13 10 12 14 11 13 14 16 16 15 16 15 14 14 6 8 10 13 14 14 14 14 12 10 10 7 7 15 10 8 8 8 6 6 6 3 2 4 6 5 7 7 8 8 5 6 6 5 6 9 13 14 15 14 15 16 11
5 5 5 6 4 6 6 6 5 3 4 3 1 4 8 12 12 10 8 8 8 10 11 12 14 15 15 17 16 14 13 12 7 9 11 12 14 15 13 12 10 9 10 8 18 13 9 7 9 8 6 7 5 3 3 2 3 5 5 6 7 8 10 9 7 7 7 7 8 8 10 14 15 16
6 5 5 6 5 7 9 6 2 3 1 1 3 7 11 11 13 10 7 8 8 10 11 12 14 15 16 18 17 16 16 16 9 9 9 12 14 14 14 16 10 9 6 6 10 10 8 6 6 9 7 6 8 3 3 4 2 3 4 5 4 6 6 6 8 9 8 8 6 10 9 10 13 15
6 6 5 6 10 11 10 5 2 4 2 1 4 8 11 11 10 8 8 8 9 10 11 12 13 15 16 17 17 17 16 14 13 5 9 10 14 14 14 15 15 8 7 8 9 12 9 6 5 5 7 6 4 3 3 4 1 7 7 5 5 6 6 7 7 6 6 6 6 7 6 6 6 6
4 6 9 11 12 10 7 1 4 4 3 2 5 7 10 9 7 8 8 8 9 9 11 12 13 13 15 15 15 16 15 14 13 12 4 10 11 13 13 12 10 8 7 4 6 8 10 8 7 6 6 5 5 7 5 4 2 5 7 7 5 6 7 7 7 8 8 7 8 9 10 9 8 7
10 11 11 11 8 5 5 4 2 1 1 4 5 6 8 6 8 8 8 9 9 10 10 11 13 13 13 15 16 16 14 13 15 13 11 3 9 10 12 10 8 5 5 8 9 7 7 8 8 8 6 4 5 6 8 7 5 3 7 9 6 4 6 7 8 7 8 9 8 9 7 7 8 8
8 9 8 4 4 5 9 8 7 6 5 4 5 4 4 5 8 7 7 8 9 9 10 10 11 13 12 13 15 16 15 15 15 14 13 11 8 1 7 9 9 6 6 4 5 6 6 7 8 10 8 6 7 8 4 6 5 3 5 6 8 8 7 8 7 8 9 8 7 7 7 7 7 9
8 6 4 5 4 4 5 6 5 4 4 4 4 5 6 4 7 8 9 7 5 7 9 9 10 12 12 13 15 15 14 14 14 15 13 13 11 10 2 5 5 5 6 5 4 6 7 7 8 8 9 10 8 6 6 7 8 7 7 6 7 4 7 10 9 8 8 8 7 8 7 7 8 7
6 3 4 5 5 5 5 4 5 5 6 6 5 6 7 5 7 8 9 10 10 9 10 11 11 11 12 12 12 13 13 13 14 13 13 13 12 11 10 8 7 4 2 3 3 5 4 5 4 5 6 7 7 8 7 6 8 7 7 7 7 6 6 8 8 8 9 8 8 7 7 8 8 8
2 4 5 5 5 5 5 5 5 6 6 7 7 6 7 6 8 8 8 9 9 9 9 9 10 11 11 12 12 12 13 14 13 13 12 11 10 11 10 9 8 7 5 3 3 2 5 4 4 8 9 11 10 7 1 4 6 8 8 8 9 9 7 7 8 10 11 10 9 8 8 8 8 8
5 5 5 5 5 4 5 5 6 5 6 6 6 7 6 6 7 8 7 9 9 9 10 10 9 10 10 11 12 12 13 12 13 12 11 10 10 11 10 10 10 9 7 5 7 7 3 7 8 8 7 5 5 5 11 7 1 3 6 7 7 8 8 7 8 9 10 8 7 9 7 7 8 8
6 6 5 5 5 4 5 5 4 5 5 5 6 6 7 7 7 8 8 9 8 9 9 10 10 10 11 11 11 12 12 13 12 12 12 11 11 11 10 10 10 10 9 8 9 6 5 3 10 11 8 8 6 5 2 9 11 5 2 7 7 8 8 8 8 9 10 9 9 9 9 9 8 7
6 5 5 5 4 4 5 5 5 5 6 5 5 6 6 7 6 7 6 7 7 8 9 9 9 9 10 10 11 11 12 12 12 12 12 12 10 10 11 12 12 10 10 10 8 8 5 7 6 6 11 8 10 8 4 2 9 12 5 5 7 9 7 7 7 9 9 10 9 9 9 8 7 7
5 5 4 4 3 4 3 4 4 4 4 4 5 5 5 5 6 6 5 7 8 8 9 9 9 9 9 10 11 11 11 11 11 12 12 12 12 11 11 11 11 10 10 9 10 9 7 9 10 9 1 9 9 8 5 3 4 10 14 4 6 3 6 8 8 8 7 7 9 8 4 6 7 7
4 3 3 2 3 2 2 3 3 4 4 5 5 6 5 6 6 6 7 7 7 8 8 9 10 10 10 10 10 9 9 10 11 11 12 11 11 12 11 10 10 10 10 11 11 11 11 11 11 9 8 9 9 5 5 7 6 3 11 19 6 1 1 4 7 6 7 8 5 3 2 2 4 8
2 1 1 3 3 4 4 5 5 5 6 5 5 5 5 6 6 6 6 8 7 7 7 8 9 10 9 9 10 9 8 10 10 10 10 10 10 11 11 9 9 8 8 10 12 12 12 13 12 10 8 7 7 8 7 7 5 4 10 18 20 9 3 1 2 5 6 6 5 6 5 5 5 2
0 3 3 4 5 5 5 6 6 6 6 6 4 5 5 6 6 5 6 7 6 7 7 8 9 9 9 10 10 10 9 9 9 9 10 10 11 10 13 12 9 9 8 9 10 10 11 10 11 14 9 7 5 2 5 7 10 9 11 10 15 20 20 15 9 6 4 1 6 8 8 8 7 7
3 4 3 4 4 5 4 5 4 4 6 5 6 6 4 6 5 8 7 7 7 7 6 7 8 8 9 9 9 10 10 9 10 10 10 10 10 10 12 10 10 10 10 10 10 9 7 7 8 9 7 7 7 11 12 9 7 7 6 6 8 13 19 20 21 19 12 9 5 1 5 5 5 7
2 3 3 3 3 3 3 4 4 5 6 6 6 6 5 6 5 6 6 7 8 7 8 8 7 7 7 8 9 9 9 9 9 10 10 10 10 10 10 9 9 8 8 8 7 6 5 6 7 7 7 9 9 8 10 9 7 5 5 6 8 6 9 12 16 18 19 19 14 10 4 2 5 9
3 2 2 4 3 3 3 5 5 6 7 6 6 6 6 6 6 7 7 7 7 8 8 8 8 8 7 8 8 8 9 8 8 9 9 9 9 8 8 9 9 9 8 8 8 7 6 6 6 5 6 9 8 9 9 8 8 6 5 6 6 7 8 6 8 10 12 18 20 16 17 17 10 12
4 3 4 3 4 5 5 5 6 6 6 6 6 6 6 6 6 6 6 7 7 8 8 8 8 8 7 7 8 9 8 9 8 8 7 8 8 8 8 8 9 9 8 8 7 8 7 6 6 5 5 6 7 8 8 7 7 5 6 7 9 7 7 6 9 9 8 10 15 18 15 16 16 21
Wind_Direction
264 266 257 264 270 284 297 325 314 317 327 322 310 299 297 304 305 311 310 308 308 306 307 301 292 282 280 273 265 260 252 242 233 234 231 230 228 223 219 219 218 217 222 225 218 219 224 226 228 230 229 227 226 227 229 230 231 231 232 234 236 237 237 236 235 235 235 236 237 239 241 242 243 243
238 241 265 272 280 276 309 301 314 342 340 330 324 310 291 284 295 303 307 303 305 300 307 292 300 306 296 288 280 267 257 249 241 234 232 227 227 225 219 217 219 219 219 223 224 220 219 219 220 223 227 229 229 227 227 229 231 231 231 232 234 236 236 236 235 234 234 236 238 239 240 241 243 244
214 235 267 272 271 274 277 298 322 347 341 320 317 309 307 310 303 304 300 302 301 332 306 307 299 298 294 287 281 276 270 260 249 242 240 238 231 226 222 218 218 217 216 217 218 218 217 217 218 220 223 227 229 230 229 228 229 230 229 230 231 233 234 235 234 234 235 236 238 238 237 238 241 243
188 215 240 237 239 263 273 307 324 320 305 308 311 309 314 310 299 288 288 291 296 308 298 299 299 294 290 286 279 273 268 265 262 251 243 240 238 232 229 223 220 217 217 217 218 218 216 217 220 222 223 224 227 229 229 230 229 229 229 229 230 231 233 233 233 234 235 236 236 236 236 237 238 239
213 225 227 229 235 244 227 223 276 295 293 305 299 296 298 295 290 283 285 294 297 294 278 298 298 298 297 287 278 273 266 261 258 257 254 246 237 232 226 226 223 220 219 219 219 219 216 216 218 221 224 225 226 227 228 229 229 229 229 229 229 230 232 232 233 234 235 235 235 236 237 236 237 237
216 217 217 241 246 235 207 201 240 248 279 282 291 290 291 284 280 260 277 283 287 298 310 301 300 296 293 287 278 274 270 261 255 254 254 250 240 233 227 224 229 221 221 222 221 222 220 219 220 221 223 225 227 229 229 228 229 229 229 229 229 229 229 231 232 234 235 235 235 236 236 237 237 238
219 210 216 229 232 217 192 213 240 248 254 247 257 273 271 270 265 266 258 278 290 297 301 306 301 302 300 294 292 278 271 265 259 254 251 248 243 237 228 227 230 227 222 222 221 222 223 223 222 222 223 224 225 227 229 229 228 228 229 229 229 229 229 230 231 233 233 233 234 234 235 236 238 239
226 218 221 230 226 212 198 214 231 246 236 237 244 257 263 255 262 265 266 257 278 292 299 304 300 300 298 295 287 283 274 266 256 246 249 248 248 243 235 226 230 233 226 223 221 222 223 224 223 223 224 225 225 226 227 228 228 227 228 229 229 229 229 230 230 231 231 231 232 232 233 235 237 238
236 232 223 229 223 210 207 215 224 237 240 239 241 252 259 258 261 267 267 274 273 288 293 298 295 294 290 286 284 281 277 272 261 249 243 243 244 243 238 233 233 235 229 224 222 221 222 223 224 225 225 225 225 225 226 226 227 226 226 227 227 228 228 228 228 229 229 229 229 230 231 233 235 236
243 238 235 233 223 214 209 217 222 228 237 237 243 253 256 259 266 268 273 276 285 286 289 294 299 295 295 295 286 287 282 276 268 259 253 246 241 241 239 232 230 228 226 224 226 227 227 227 227 227 229 230 228 227 226 226 225 225 224 224 225 226 227 227 226 226 226 227 228 228 229 231 233 234
243 242 243 240 229 220 216 214 217 226 232 229 240 248 256 265 270 275 281 289 293 293 294 294 288 291 290 288 295 296 289 277 269 265 262 257 244 239 232 234 228 224 225 223 218 217 213 216 218 222 223 225 227 226 225 225 224 223 222 222 222 224 225 225 224 224 224 225 226 227 228 229 230 232
245 247 249 244 232 224 219 214 221 217 227 222 242 250 255 264 271 279 287 294 294 296 296 294 299 294 292 295 285 289 291 288 274 254 251 254 250 243 236 229 228 221 219 224 223 225 224 224 221 221 219 220 222 223 225 225 223 222 220 220 221 222 223 223 223 224 224 224 225 226 227 227 229 231
253 255 254 251 241 234 227 218 220 222 213 218 241 257 256 262 269 279 287 290 293 293 294 296 295 295 293 289 292 295 294 290 284 275 250 253 252 247 246 241 229 220 213 222 223 221 210 217 218 215 222 224 221 226 222 225 223 221 218 218 219 220 221 221 221 223 224 224 225 225 226 226 227 228
272 268 267 265 255 246 245 241 238 240 242 238 233 245 253 258 269 280 286 288 290 295 298 299 302 302 299 294 291 286 283 285 289 288 277 260 255 253 250 248 230 207 209 216 222 225 212 210 219 211 221 225 203 215 211 218 215 216 215 216 217 218 219 219 220 221 222 223 224 225 225 225 226 226
264 274 276 279 277 270 270 271 265 257 260 265 257 248 248 255 253 270 273 275 283 296 297 297 297 295 295 291 287 283 284 281 280 281 279 265 256 247 244 247 244 207 199 213 221 229 213 204 218 216 219 216 199 203 211 210 211 211 208 211 214 216 218 219 219 220 220 222 224 224 224 224 225 225
250 260 274 282 280 267 261 256 263 270 269 269 263 254 253 256 252 242 244 266 286 288 294 293 291 292 290 289 288 284 280 278 278 272 275 271 259 252 244 240 237 206 189 207 216 234 210 202 215 223 220 214 207 205 208 207 207 210 210 209 211 214 215 216 217 217 218 220 223 223 223 223 223 223
248 253 276 274 267 268 255 259 264 263 270 270 271 261 249 253 259 269 271 264 261 279 279 284 287 286 290 289 283 277 277 274 270 272 269 269 265 252 248 243 240 222 186 197 218 231 217 194 213 224 221 211 210 211 207 206 205 206 209 209 209 210 212 214 214 215 217 219 221 222 221 220 221 222
251 252 254 255 278 277 268 261 264 269 271 274 273 278 275 272 277 278 274 277 278 278 278 281 286 287 286 284 283 277 270 266 263 261 260 265 266 259 249 246 243 230 178 197 197 232 224 199 211 223 225 208 210 212 202 201 202 203 205 206 206 207 210 212 213 215 217 218 220 219 218 218 219 219
251 245 228 238 260 276 276 265 260 265 274 281 281 279 278 274 274 271 277 280 285 288 286 290 287 287 285 281 277 273 266 257 256 252 254 255 261 270 271 258 245 236 200 194 188 227 221 196 210 223 219 209 216 209 201 193 199 200 200 203 206 208 209 211 214 216 218 220 219 216 214 214 213 215
246 231 227 247 270 269 270 273 270 276 290 285 282 279 279 284 280 277 272 276 278 280 286 291 291 290 284 278 276 271 265 259 252 250 249 247 247 251 253 250 246 237 203 183 174 210 242 205 211 224 215 199 217 211 212 194 196 198 198 201 205 208 210 212 214 216 218 219 217 212 210 208 209 211
247 236 231 245 262 267 269 271 289 338 10 280 276 280 287 287 287 286 294 298 301 295 289 288 288 284 282 279 274 269 261 251 242 242 243 237 225 233 237 237 233 235 193 195 178 189 228 217 211 221 204 199 213 211 211 206 197 198 199 202 204 207 211 213 214 216 216 214 210 208 206 205 207 209
254 245 245 251 258 260 264 275 331 340 300 279 286 294 295 296 295 297 309 312 302 293 290 292 293 293 291 290 285 276 263 248 231 217 226 225 212 235 235 229 222 223 206 199 170 189 220 211 209 208 197 201 229 214 213 208 197 198 204 205 205 207 211 212 213 212 212 208 205 203 199 200 197 196
260 263 264 265 266 254 251 271 309 305 260 270 279 296 294 295 301 304 314 306 305 308 315 316 318 317 315 313 308 298 288 251 221 210 219 221 216 223 231 231 216 222 222 195 166 193 217 207 213 172 116 242 249 215 205 206 199 188 190 205 213 215 211 213 211 209 207 203 198 196 194 193 183 175
287 274 276 275 269 262 256 273 281 286 256 226 288 286 300 313 305 311 307 297 295 303 312 315 316 312 310 311 311 313 307 256 209 205 209 213 210 215 226 230 216 216 196 166 168 191 208 200 208 181 181 175 235 213 191 205 195 186 180 179 196 198 192 190 196 197 194 194 194 193 191 185 178 165
287 290 284 280 260 191 172 259 268 259 230 228 271 298 320 302 293 295 293 299 306 311 313 316 316 314 316 317 320 323 327 276 200 198 207 208 206 208 215 223 216 220 204 170 173 191 198 182 197 171 195 208 215 176 202 198 189 183 185 181 186 154 145 164 157 164 188 191 193 192 188 182 184 183
275 271 275 292 251 195 222 249 258 249 239 262 297 315 294 296 307 310 300 303 314 317 317 318 320 321 324 326 329 331 333 324 215 195 195 202 203 210 215 224 213 208 205 185 176 188 187 191 189 177 184 195 229 174 135 212 210 188 168 183 184 172 152 150 159 167 161 163 170 187 188 186 188 196
282 283 285 277 276 301 306 311 37 229 234 343 339 318 331 330 324 320 331 328 324 322 320 322 326 325 328 333 335 336 337 330 295 198 199 197 200 206 215 231 241 222 207 185 182 193 196 192 179 177 184 192 209 194 173 167 206 133 156 172 156 143 163 153 167 161 160 171 181 177 176 186 195 202
281 285 283 291 301 304 312 326 171 198 139 37 3 354 341 340 341 346 341 342 330 320 325 328 327 331 330 332 337 340 333 323 319 230 196 195 200 200 204 223 235 214 189 190 183 191 196 193 157 127 120 124 182 246 275 343 63 168 182 164 149 157 172 179 177 165 166 166 141 152 150 165 200 199
287 295 301 305 306 315 334 35 139 164 194 20 28 356 351 355 355 351 349 337 331 329 332 325 327 330 332 329 325 328 327 325 353 6 297 192 191 197 199 221 226 211 193 189 209 188 178 178 171 167 166 157 160 197 190 193 225 208 175 153 176 186 181 185 180 178 172 174 173 164 183 168 177 190
327 321 318 315 324 21 49 53 57 7 339 17 360 357 1 5 358 353 348 341 336 333 326 330 329 329 327 330 330 330 334 352 5 359 2 330 178 185 197 216 232 217 212 188 205 183 176 162 156 158 153 133 162 191 195 193 219 209 191 188 179 130 188 184 189 179 171 181 181 183 190 186 182 167
332 327 321 331 25 83 59 51 33 6 0 359 343 350 359 10 1 350 351 337 327 318 328 334 330 326 329 327 334 343 350 359 1 4 5 13 359 233 187 202 220 229 229 217 171 168 161 161 153 155 161 172 190 199 177 188 197 187 215 199 161 182 182 183 184 184 184 177 173 174 177 178 176 184
318 308 310 25 28 43 43 30 13 349 353 351 349 356 354 7 360 347 334 323 321 335 333 331 333 328 335 345 340 341 350 357 4 5 7 13 12 359 308 185 223 219 216 211 180 182 170 167 158 164 161 162 168 173 165 181 196 204 212 206 205 199 152 180 183 182 174 164 166 183 184 183 180 181
308 331 42 39 24 30 36 17 2 348 352 354 357 359 354 359 359 352 356 358 349 338 341 343 338 336 337 341 344 342 347 356 1 4 7 13 19 15 22 21 2 336 189 204 184 169 167 157 152 150 141 150 169 171 168 173 208 207 214 206 208 197 184 183 178 171 163 168 183 177 187 193 193 186
264 17 36 41 25 18 26 17 4 5 2 354 352 358 357 4 4 358 355 351 342 340 343 339 341 339 339 343 344 346 352 351 360 2 9 10 9 23 24 23 9 346 4 1 338 237 158 183 116 85 85 70 53 39 14 199 195 199 209 197 195 206 197 178 176 173 175 184 172 175 188 194 196 191
33 33 35 27 17 11 19 25 14 12 9 360 354 356 354 1 4 359 352 349 339 342 344 343 344 343 346 345 344 347 354 354 353 355 6 10 15 22 16 21 15 6 1 14 27 358 290 154 125 128 118 115 84 64 55 39 238 240 210 209 204 199 196 186 174 175 178 177 172 181 186 188 195 193
32 28 33 22 11 13 23 16 18 17 16 7 359 351 354 356 0 358 355 343 340 340 345 346 347 348 345 347 345 350 352 354 356 357 358 5 14 16 19 21 16 10 2 14 18 5 342 226 163 155 156 146 141 144 95 56 72 35 286 228 201 206 194 187 180 175 178 181 182 180 183 193 196 187
42 29 33 26 8 18 19 10 14 19 15 8 4 355 352 347 350 350 343 342 343 347 345 343 343 342 345 348 348 352 357 358 354 356 358 0 9 13 15 15 16 6 10 7 8 5 2 36 12 161 163 168 178 176 129 173 65 54 34 282 238 196 184 179 180 184 186 179 183 188 191 183 186 191
45 31 31 25 17 4 10 7 4 9 7 5 1 349 349 341 345 345 349 359 357 350 347 350 345 343 346 351 353 352 355 357 356 357 357 359 4 9 13 13 7 6 8 8 13 15 3 38 42 25 80 172 174 149 139 53 20 14 4 309 249 206 157 168 184 187 189 189 184 188 165 184 188 187
63 42 30 13 4 339 354 338 351 355 359 355 1 354 348 349 346 354 5 6 357 353 349 351 351 346 347 350 353 352 354 358 1 356 356 357 4 4 359 6 9 2 9 12 11 19 14 31 36 32 35 56 65 49 77 105 64 44 24 28 8 24 201 196 188 180 186 186 168 116 81 62 57 107
54 66 26 28 1 350 348 351 354 4 1 355 358 355 1 353 351 356 4 4 359 355 352 353 347 346 349 349 352 349 355 6 5 358 357 355 357 4 4 354 3 359 6 16 22 17 17 21 22 23 26 40 78 95 99 100 119 66 47 33 25 45 33 298 196 191 194 179 138 143 145 132 142 152
70 51 33 49 31 9 9 6 2 4 3 353 356 1 14 358 347 2 5 2 357 355 354 353 352 352 350 349 353 355 353 359 7 3 1 357 358 3 2 1 3 355 1 17 26 26 22 8 12 17 29 33 36 106 86 62 47 38 49 45 33 44 51 58 50 28 360 10 162 170 166 163 160 153
86 86 60 65 50 14 7 2 351 10 1 352 0 359 12 8 357 1 359 359 358 356 354 351 349 351 352 352 351 355 355 357 3 4 3 360 358 1 3 5 1 355 3 10 19 23 359 356 5 18 19 36 44 58 57 48 45 35 43 58 55 45 54 52 55 59 53 37 19 337 152 151 161 158
69 101 93 80 75 33 11 353 357 12 9 4 4 3 10 17 3 5 4 0 357 355 355 349 343 346 350 352 351 351 353 355 4 3 2 2 1 359 0 356 349 353 358 355 1 9 360 357 358 10 23 39 41 54 61 53 40 23 25 45 53 52 50 52 55 57 60 55 53 66 17 271 183 169
28 68 95 98 78 44 20 15 14 37 28 15 15 2 15 17 9 11 5 1 357 352 347 350 346 344 348 356 352 353 358 357 358 1 3 0 360 356 355 353 352 352 355 359 351 1 0 7 5 0 31 43 39 48 52 53 49 31 25 41 47 41 46 39 45 41 37 47 42 27 47 46 53 70
12 9 60 78 73 58 39 27 42 41 37 29 18 6 13 18 17 8 2 0 356 348 347 348 347 343 340 357 359 358 356 355 355 358 357 359 359 357 358 359 356 352 359 354 355 357 0 4 4 3 33 43 52 57 53 58 53 40 34 40 46 41 35 35 45 34 28 43 29 36 33 48 43 65